{"data":{"norad_id":48292,"intl_designator":"2021-036S","name":"STARLINK-2542","alt_names":[],"object_type":"PAYLOAD","status":"ACTIVE","operator":null,"country":"US","launch_date":"2021-04-29","launch_site_code":"AFETR","launch_vehicle":null,"mission":null,"orbit_class":"UNKNOWN","rcs_meters":null,"size_class":null,"mass_kg":null,"dimensions":null,"purposes":["comms"],"wikipedia_slug":null,"has_3d_model":false,"image_url":null,"decayed_at":null,"tle_current":{"epoch":"2026-09-19T16:03:20.744640Z","epoch_age_seconds":105536,"freshness":"FRESH","line1":"1 48292U 21036S   26262.66899010 -.00000451  00000+0 -27795-5 0  9990","line2":"2 48292  53.1595 252.5044 0001393  93.1215 266.9946 15.31697469298130","mean_motion":15.31697469,"eccentricity":0.0001393,"inclination_deg":53.1595,"raan_deg":252.5044,"arg_perigee_deg":93.1215,"mean_anomaly_deg":266.9946,"bstar":-2.7795e-6,"rev_number":29813,"period_min":94.013343309899,"perigee_km":469.79349039891,"apogee_km":471.70158963176,"semimajor_km":6848.8845400153,"source":"CELESTRAK","updated_at":"2026-09-20T09:00:38.930257Z"}}}